This is the latest recevied weather packets stored in our database for station/object OK1TBM-13. If no packets are shown the sender has not sent any weather packets the latest 10 day(s).
| Time | Temp. | Humidity | Pressure | Rain* | Wind** | Luminosity | Snow |
|---|---|---|---|---|---|---|---|
| 1788505201 | 19.44° C | 80% | 1015.9 hPa | 0 mm | - | 104 W/m² | - |
| 1788504301 | 18.89° C | 83% | 1015.9 hPa | 0 mm | - | 130 W/m² | - |
| 1788504001 | 18.33° C | 85% | 1016.3 hPa | 0 mm | - | 136 W/m² | - |
| 1788503701 | 18.33° C | 85% | 1016.3 hPa | 0 mm | - | 115 W/m² | - |
| 1788503401 | 17.78° C | 84% | 1016.3 hPa | 0 mm | - | 62 W/m² | - |
| 1788503101 | 17.78° C | 84% | 1016.6 hPa | 0 mm | - | 38 W/m² | - |
| 1788502801 | 17.78° C | 84% | 1016.6 hPa | 0 mm | - | 27 W/m² | - |
| 1788502501 | 17.78° C | 86% | 1015.9 hPa | 0 mm | - | 52 W/m² | - |
| 1788502201 | 17.78° C | 85% | 1015.9 hPa | 0 mm | - | 70 W/m² | - |
| 1788501601 | 17.22° C | 88% | 1016.3 hPa | 0 mm | - | 181 W/m² | - |
| 1788501302 | 16.11° C | 92% | 1016.3 hPa | 0 mm | - | 156 W/m² | - |
| 1788500701 | 15.56° C | 95% | 1016.3 hPa | 0 mm | - | 69 W/m² | - |
| 1788500401 | 15.56° C | 96% | 1015.9 hPa | 0 mm | - | 70 W/m² | - |
| 1788500101 | 15° C | 97% | 1015.9 hPa | 0 mm | - | 75 W/m² | - |
| 1788499801 | 14.44° C | 98% | 1015.9 hPa | 0 mm | - | 81 W/m² | - |
| 1788499502 | 14.44° C | 99% | 1015.9 hPa | 0 mm | - | 61 W/m² | - |
| 1788499202 | 14.44° C | 99% | 1015.9 hPa | 0 mm | - | 50 W/m² | - |
| 1788498902 | 14.44° C | 99% | 1015.9 hPa | 0 mm | - | 44 W/m² | - |
| 1788498602 | 14.44° C | 99% | 1015.9 hPa | 0 mm | - | 36 W/m² | - |
| 1788498306 | 14.44° C | 99% | 1016.3 hPa | 0 mm | - | 29 W/m² | - |
| 1788498001 | 14.44° C | 99% | 1016.3 hPa | 0 mm | - | 25 W/m² | - |
| 1788497407 | 14.44° C | 99% | 1015.9 hPa | 0 mm | - | 17 W/m² | - |
| 1788497102 | 13.89° C | 99% | 1015.9 hPa | 0 mm | - | 14 W/m² | - |
| 1788496802 | 13.89° C | 99% | 1016.3 hPa | 0 mm | - | 10 W/m² | - |
| 1788496501 | 13.89° C | 99% | 1016.3 hPa | 0 mm | - | 8 W/m² | - |
* Rain latest hour (hover to see other rain measurements)
** Current wind speed in m/s (hover to see current wind gust speed)